When you browse on this site, cookies collect data to enhance your experience and personalize the content and advertising you see.
Visit our Privacy Policy to learn more. By continuing to use the site, you agree to this use of cookies and data.
  • In Lithuania
  • List of Countries
  • For 7 days
  • Water Temperature
  • Weather Map
  • Weather Widgets
  • user-avatar
    Login

    Hourly Weather Bedford

    Today, 7 April, Tuesday

    Time Temperature Precipitation Wind Pressure Humidity
    00:00 +7°C° 0 mm 1 mps 767 mmHg 85%
    01:00 +7°C° 0 mm 1 mps 767 mmHg 84%
    02:00 +6°C° 0 mm 1 mps 768 mmHg 84%
    03:00 +6°C° 0 mm 1 mps 768 mmHg 83%
    04:00 +6°C° 0 mm 1 mps 768 mmHg 84%
    05:00 +6°C° 0 mm 1 mps 769 mmHg 84%
    06:00 +6°C° 0 mm 0 mps 769 mmHg 87%
    07:00 +9°C° 0 mm 1 mps 769 mmHg 84%
    08:00 +11°C° 0 mm 1 mps 769 mmHg 80%
    09:00 +13°C° 0 mm 2 mps 769 mmHg 76%
    10:00 +14°C° 0 mm 2 mps 769 mmHg 72%
    11:00 +14°C° 0 mm 3 mps 769 mmHg 68%
    12:00 +17°C° 0 mm 3 mps 769 mmHg 64%
    13:00 +17°C° 0 mm 3 mps 768 mmHg 62%
    14:00 +17°C° 0 mm 3 mps 768 mmHg 61%
    15:00 +17°C° 0 mm 3 mps 768 mmHg 59%
    16:00 +16°C° 0 mm 3 mps 768 mmHg 65%
    17:00 +15°C° 0 mm 2 mps 768 mmHg 71%
    18:00 +14°C° 0 mm 2 mps 768 mmHg 77%
    19:00 +13°C° 0 mm 2 mps 768 mmHg 79%
    20:00 +10°C° 0 mm 2 mps 768 mmHg 81%
    21:00 +9°C° 0 mm 2 mps 768 mmHg 83%
    22:00 +9°C° 0 mm 2 mps 768 mmHg 82%
    23:00 +9°C° 0 mm 2 mps 767 mmHg 80%

    Tomorrow, 8 April, Wednesday

    Time Temperature Precipitation Wind Pressure Humidity
    00:00 +10°C° 0 mm 1 mps 767 mmHg 79%
    01:00 +10°C° 0 mm 1 mps 767 mmHg 80%
    02:00 +9°C° 0 mm 1 mps 766 mmHg 80%
    03:00 +9°C° 0 mm 1 mps 766 mmHg 81%
    04:00 +9°C° 0 mm 1 mps 766 mmHg 81%
    05:00 +10°C° 0 mm 1 mps 766 mmHg 80%
    06:00 +10°C° 0 mm 1 mps 766 mmHg 79%
    07:00 +11°C° 0 mm 1 mps 766 mmHg 77%
    08:00 +13°C° 0 mm 2 mps 765 mmHg 74%
    09:00 +14°C° 0 mm 2 mps 765 mmHg 72%
    10:00 +16°C° 0 mm 2 mps 765 mmHg 70%
    11:00 +17°C° 0 mm 2 mps 765 mmHg 69%
    12:00 +19°C° 0 mm 2 mps 765 mmHg 68%
    13:00 +19°C° 0.6 mm 2 mps 765 mmHg 69%
    14:00 +20°C° 0.6 mm 1 mps 764 mmHg 69%
    15:00 +20°C° 0.6 mm 1 mps 764 mmHg 70%
    16:00 +19°C° 0.4 mm 1 mps 764 mmHg 74%
    17:00 +18°C° 0.4 mm 1 mps 764 mmHg 79%
    18:00 +16°C° 0.4 mm 1 mps 764 mmHg 83%
    19:00 +15°C° 0 mm 1 mps 764 mmHg 84%
    20:00 +14°C° 0 mm 1 mps 765 mmHg 86%
    21:00 +13°C° 0 mm 1 mps 765 mmHg 88%
    22:00 +12°C° 0 mm 1 mps 765 mmHg 88%
    23:00 +12°C° 0 mm 1 mps 765 mmHg 89%

    Day after tomorrow, 9 April, Thursday

    Time Temperature Precipitation Wind Pressure Humidity
    00:00 +12°C° 0 mm 1 mps 765 mmHg 89%
    01:00 +11°C° 0 mm 1 mps 765 mmHg 90%
    02:00 +11°C° 0 mm 1 mps 765 mmHg 91%
    03:00 +11°C° 0 mm 1 mps 765 mmHg 92%
    04:00 +11°C° 0 mm 1 mps 765 mmHg 93%
    05:00 +11°C° 0 mm 1 mps 765 mmHg 94%
    06:00 +10°C° 0 mm 2 mps 765 mmHg 96%
    07:00 +12°C° 0 mm 2 mps 765 mmHg 92%
    08:00 +14°C° 0 mm 2 mps 766 mmHg 87%
    09:00 +16°C° 0 mm 2 mps 766 mmHg 83%
    10:00 +17°C° 0 mm 2 mps 766 mmHg 79%
    11:00 +18°C° 0 mm 2 mps 766 mmHg 75%
    12:00 +19°C° 0 mm 3 mps 766 mmHg 71%
    13:00 +19°C° 0.1 mm 3 mps 766 mmHg 71%
    14:00 +19°C° 0.1 mm 3 mps 766 mmHg 71%
    15:00 +19°C° 0.1 mm 3 mps 765 mmHg 71%
    16:00 +18°C° 0.1 mm 3 mps 765 mmHg 76%
    17:00 +17°C° 0.1 mm 3 mps 765 mmHg 81%
    18:00 +16°C° 0.1 mm 3 mps 765 mmHg 86%
    19:00 +13°C° 0 mm 3 mps 766 mmHg 88%
    20:00 +12°C° 0 mm 3 mps 766 mmHg 89%
    21:00 +10°C° 0 mm 3 mps 766 mmHg 91%
    22:00 +10°C° 0 mm 3 mps 766 mmHg 90%
    23:00 +9°C° 0 mm 3 mps 766 mmHg 89%

    10 April, Friday

    Time Temperature Precipitation Wind Pressure Humidity
    00:00 +8°C° 0 mm 2 mps 766 mmHg 88%
    01:00 +8°C° 0 mm 2 mps 766 mmHg 89%
    02:00 +8°C° 0 mm 2 mps 766 mmHg 90%
    03:00 +8°C° 0 mm 2 mps 765 mmHg 91%
    04:00 +8°C° 0 mm 2 mps 765 mmHg 92%
    05:00 +8°C° 0 mm 2 mps 766 mmHg 92%
    06:00 +9°C° 0 mm 2 mps 766 mmHg 93%
    07:00 +12°C° 0 mm 2 mps 765 mmHg 88%
    08:00 +14°C° 0 mm 2 mps 765 mmHg 83%
    09:00 +16°C° 0 mm 2 mps 765 mmHg 78%
    10:00 +18°C° 0.1 mm 2 mps 765 mmHg 75%
    11:00 +19°C° 0.1 mm 2 mps 765 mmHg 71%
    12:00 +21°C° 0.1 mm 3 mps 765 mmHg 67%
    13:00 +21°C° 0.6 mm 3 mps 764 mmHg 68%
    14:00 +21°C° 0.6 mm 3 mps 764 mmHg 68%
    15:00 +21°C° 0.6 mm 4 mps 763 mmHg 68%
    16:00 +20°C° 0.3 mm 3 mps 763 mmHg 73%
    17:00 +19°C° 0.3 mm 3 mps 763 mmHg 77%
    18:00 +17°C° 0.3 mm 2 mps 763 mmHg 82%
    19:00 +16°C° 0.1 mm 2 mps 763 mmHg 85%
    20:00 +15°C° 0.1 mm 2 mps 763 mmHg 87%
    21:00 +13°C° 0.1 mm 3 mps 763 mmHg 90%
    22:00 +12°C° 0 mm 3 mps 763 mmHg 91%
    23:00 +12°C° 0 mm 3 mps 763 mmHg 91%

    11 April, Saturday

    Time Temperature Precipitation Wind Pressure Humidity
    00:00 +11°C° 0 mm 3 mps 763 mmHg 92%
    01:00 +11°C° 0 mm 3 mps 763 mmHg 93%
    02:00 +11°C° 0 mm 3 mps 763 mmHg 93%
    03:00 +11°C° 0 mm 3 mps 763 mmHg 93%
    04:00 +12°C° 0 mm 2 mps 763 mmHg 94%
    05:00 +12°C° 0 mm 2 mps 763 mmHg 95%
    06:00 +12°C° 0 mm 2 mps 763 mmHg 95%
    07:00 +13°C° 0 mm 2 mps 763 mmHg 91%
    08:00 +14°C° 0 mm 3 mps 763 mmHg 87%
    09:00 +16°C° 0 mm 3 mps 763 mmHg 83%
    10:00 +17°C° 0 mm 3 mps 763 mmHg 80%
    11:00 +17°C° 0 mm 3 mps 763 mmHg 77%
    12:00 +18°C° 0 mm 3 mps 763 mmHg 74%
    13:00 +18°C° 0.1 mm 4 mps 763 mmHg 74%
    14:00 +18°C° 0.1 mm 4 mps 763 mmHg 74%
    15:00 +18°C° 0.1 mm 4 mps 763 mmHg 75%
    16:00 +17°C° 0 mm 4 mps 763 mmHg 77%
    17:00 +15°C° 0 mm 4 mps 762 mmHg 80%
    18:00 +14°C° 0 mm 3 mps 762 mmHg 82%
    19:00 +12°C° 0 mm 3 mps 763 mmHg 84%
    20:00 +10°C° 0 mm 3 mps 763 mmHg 86%
    21:00 +8°C° 0 mm 3 mps 763 mmHg 88%
    22:00 +8°C° 0 mm 3 mps 763 mmHg 89%
    23:00 +7°C° 0 mm 2 mps 763 mmHg 90%

    12 April, Sunday

    Time Temperature Precipitation Wind Pressure Humidity
    00:00 +6°C° 0 mm 2 mps 762 mmHg 91%
    01:00 +6°C° 0 mm 2 mps 762 mmHg 92%
    02:00 +5°C° 0 mm 2 mps 761 mmHg 92%
    03:00 +6°C° 0 mm 1 mps 761 mmHg 92%
    04:00 +6°C° 0 mm 1 mps 760 mmHg 91%
    05:00 +7°C° 0 mm 1 mps 760 mmHg 89%
    06:00 +7°C° 0 mm 1 mps 760 mmHg 88%
    07:00 +8°C° 0 mm 1 mps 759 mmHg 84%
    08:00 +10°C° 0 mm 1 mps 759 mmHg 80%
    09:00 +11°C° 0 mm 1 mps 758 mmHg 77%
    10:00 +12°C° 0 mm 1 mps 758 mmHg 77%
    11:00 +12°C° 0 mm 2 mps 758 mmHg 77%
    12:00 +13°C° 0 mm 2 mps 757 mmHg 77%
    13:00 +13°C° 0 mm 2 mps 757 mmHg 77%
    14:00 +12°C° 0 mm 3 mps 757 mmHg 78%
    15:00 +13°C° 0 mm 3 mps 757 mmHg 78%
    16:00 +12°C° 0.8 mm 4 mps 757 mmHg 82%
    17:00 +12°C° 0.8 mm 4 mps 757 mmHg 86%
    18:00 +12°C° 0.8 mm 5 mps 757 mmHg 90%
    19:00 +10°C° 0.7 mm 5 mps 758 mmHg 90%
    20:00 +9°C° 0.7 mm 6 mps 759 mmHg 90%
    21:00 +8°C° 0.7 mm 7 mps 759 mmHg 90%
    22:00 +8°C° 0.1 mm 7 mps 760 mmHg 88%
    23:00 +6°C° 0.1 mm 7 mps 761 mmHg 85%
    Show more